This is the latest recevied weather packets stored in our database for station/object W0BJ. If no packets are shown the sender has not sent any weather packets the latest 10 day(s).
| Time | Temp. | Humidity | Pressure | Rain* | Wind** | Luminosity | Snow |
|---|---|---|---|---|---|---|---|
| 1777758799 | 18.33° C | 33% | 1021.3 hPa | 0 mm | - | - | - |
| 1777758745 | 18.33° C | 33% | 1021.2 hPa | 0 mm | - | - | - |
| 1777758144 | 18.89° C | 34% | 1021.2 hPa | 0 mm | - | - | - |
| 1777757898 | 18.33° C | 34% | 1021.3 hPa | 0 mm | - | - | - |
| 1777757543 | 17.78° C | 33% | 1021.3 hPa | 0 mm | - | - | - |
| 1777756999 | 17.78° C | 33% | 1021.3 hPa | 0 mm | - | - | - |
| 1777756945 | 17.78° C | 34% | 1021.3 hPa | 0 mm | - | - | - |
| 1777756344 | 16.67° C | 33% | 1021.4 hPa | 0 mm | - | - | - |
| 1777756097 | 16.67° C | 33% | 1021.4 hPa | 0 mm | - | - | - |
| 1777755745 | 17.22° C | 34% | 1021.4 hPa | 0 mm | - | - | - |
| 1777755199 | 18.33° C | 32% | 1021.5 hPa | 0 mm | - | - | - |
| 1777755144 | 18.33° C | 33% | 1021.4 hPa | 0 mm | - | - | - |
| 1777754544 | 19.44° C | 33% | 1021.4 hPa | 0 mm | - | - | - |
| 1777754298 | 19.44° C | 33% | 1021.6 hPa | 0 mm | - | - | - |
| 1777753943 | 18.89° C | 34% | 1021.6 hPa | 0 mm | - | - | - |
| 1777753399 | 18.33° C | 32% | 1021.7 hPa | 0 mm | - | - | - |
| 1777753345 | 18.89° C | 33% | 1021.8 hPa | 0 mm | - | - | - |
| 1777752744 | 18.89° C | 33% | 1021.9 hPa | 0 mm | - | - | - |
| 1777752498 | 18.89° C | 33% | 1021.8 hPa | 0 mm | - | - | - |
| 1777752143 | 18.33° C | 34% | 1021.9 hPa | 0 mm | - | - | - |
| 1777751599 | 18.89° C | 36% | 1022 hPa | 0 mm | - | - | - |
| 1777751545 | 18.89° C | 38% | 1022 hPa | 0 mm | - | - | - |
| 1777750944 | 17.78° C | 36% | 1022.1 hPa | 0 mm | - | - | - |
| 1777750698 | 17.22° C | 34% | 1022 hPa | 0 mm | - | - | - |
| 1777750343 | 17.78° C | 34% | 1022.1 hPa | 0 mm | - | - | - |
* Rain latest hour (hover to see other rain measurements)
** Current wind speed in m/s (hover to see current wind gust speed)